Regional Weather Roundup
Issued by NWS

Home | Current Version | Previous Version | Graphics & Text | Print | Product List | Glossary On
Versions: 1 2 3 4 5 6 7 8 9 10 11 12 13 14 15 16 17 18 19 20 21 22 23 24 25 26 27 28 29 30 31 32 33 34 35 36 37 38 39 40 41 42 43 44 45 46 47 48 49 50
000
ASUS43 KOAX 290802
RWRNE

WEATHER ROUNDUP FOR NEBRASKA
NATIONAL WEATHER SERVICE OMAHA NE
200 AM CST MON DEC 29 2014

NOTES: SATELLITE DATA IS BEING USED TO AUGMENT CLOUD COVER ABOVE
       12000 FEET.
       "FAIR" INDICATES FEW OR NO CLOUDS BELOW 12,000 FEET WITH NO
       SIGNIFICANT WEATHER AND/OR OBSTRUCTIONS TO VISIBILITY.

  * THESE STATIONS DO NOT REPORT WEATHER SUCH AS RAIN...SNOW OR FOG.

NEZ001>004-019>022-054>056-290900-
NEBRASKA PANHANDLE

CITY           SKY/WX    TMP DP  RH WIND       PRES   REMARKS
SCOTTSBLUFF    LGT SNOW  19  15  84 N12       30.05R FOG     WCI   7
ALLIANCE       LGT SNOW  20  18  92 N12       30.03R VSB 3/4 WCI   8
CHADRON        LGT SNOW  15  11  83 NE14      30.15R FOG     WCI   0
SIDNEY         MOCLDY    11   7  84 NW10      29.98S WCI  -3
$$

NEZ057>060-069>072-079>082-290900-
SOUTHWEST NEBRASKA

CITY           SKY/WX    TMP DP  RH WIND       PRES   REMARKS
NORTH PLATTE   CLOUDY    21  16  81 E6        30.10R WCI  13
IMPERIAL       PTCLDY     3  -1  83 N5        30.05R WCI  -6
LEXINGTON      CLOUDY    19  17  90 NE5       30.13R WCI  13
MCCOOK         CLEAR     11   9  92 NE6       30.08F WCI   1
$$

NEZ005>010-023>029-035>040-094-290900-
NORTH CENTRAL NEBRASKA

CITY           SKY/WX    TMP DP  RH WIND       PRES   REMARKS
VALENTINE      LGT SNOW  16  13  88 NE12      30.20R FOG     WCI   3
AINSWORTH      LGT SNOW  16  14  91 E8        30.19R WCI   5
BROKEN BOW     CLOUDY    19  14  81 NE7       30.14R WCI  10
ORD            CLOUDY    18  14  84 MISG      30.18R
$$

NEZ041-046>049-061>064-073>077-083>087-290900-
SOUTH CENTRAL NEBRASKA

CITY           SKY/WX    TMP DP  RH WIND       PRES   REMARKS
GRAND ISLAND   CLOUDY    18  15  88 NE10      30.19R WCI   6
HASTINGS       CLOUDY    20  17  88 NE10      30.15R WCI   9
HEBRON         CLOUDY    27  23  86 NE5       30.17S WCI  21
KEARNEY *      CLOUDY    19  16  86 NE10      30.15R WCI   8
YORK           CLOUDY    21  19  93 NE10      30.19S WCI  10
$$

NEZ011>018-030>034-042>045-290900-
NORTHEAST NEBRASKA

CITY           SKY/WX    TMP DP  RH WIND       PRES   REMARKS
NORFOLK        CLOUDY    20  16  84 NE9       30.24R WCI   9
BLAIR          PTCLDY    21  19  89 N13       30.21S WCI   9
COLUMBUS *     MOCLDY    19  12  73 NE10      30.23S WCI   8
FREMONT        MOCLDY    21  18  86 N6        30.24R WCI  14
TEKAMAH        CLOUDY    20  16  84 N12       30.26S WCI   8
$$

NEZ050>053-065>068-078-088>093-290900-
SOUTHEAST NEBRASKA

CITY           SKY/WX    TMP DP  RH WIND       PRES   REMARKS
LINCOLN        CLOUDY    23  20  88 N9        30.23R WCI  13
OMAHA EPPLEY   PTCLDY    22  19  89 N8        30.25R WCI  12
FALLS CITY     CLOUDY    29  23  78 CALM      30.19S
NEBRASKA CITY  MOCLDY    28  24  86 NE8       30.20R WCI  20
$$

NEZ044-045-051>053-067-290900-
OMAHA AREA

CITY           SKY/WX    TMP DP  RH WIND       PRES   REMARKS
OMAHA EPPLEY   PTCLDY    22  19  89 N8        30.25R WCI  12
BLAIR          PTCLDY    21  19  89 N13       30.21S WCI   9
FREMONT        MOCLDY    21  18  86 N6        30.24R WCI  14
OFFUTT AFB     PTCLDY    24  21  89 N6        30.22R WCI  17
$$



USA.gov is the U.S. government's official web portal to all federal, state and local government web resources and services.